Find Starlink 11083

NORAD ID: 59424 Int'l Des: 2024-065 Owner: SPXS Country: US Constellation: starlink operational
LEOCIRCULAR

Live-Position

3D-Globus wird geladen...

Über Starlink 11083

Beschreibung wird geladen...

Nächste Überflüge

Passes for default location (London). Set your location on the main map for personalized predictions.

Höhenverlauf

Loading altitude history...

Zweizeiliger Elementsatz

1 59424U 24065D 26126.38450825 -.00004012 00000-0 -28295-4 0 9992
2 59424 53.1590 169.5485 0001814 92.3772 267.7454 15.69684011120538
Epoch: 6. Mai 2026 • Age: 19 hours

Aktueller Status

Höhe 365.1 km
Geschwindigkeit 7.70 km/s
Subsatellitenpunkt 53.17°N, 22.98°W
Startdatum 7. Apr. 2024
Alter 2 years
Typ internet

Technische Details

Klassifizierung Payload
Masse 960.00 kg
Trockenmasse 910.00 kg
Gesamtmasse 960.00 kg
Länge 0.30 m
Durchmesser 4.10 m
Spannweite 29.00 m
Form Box + pan
Hersteller SPXS
Bus-Typ Starlink V2MD
Phasenstatus In Orbit
Besitzer/Staat SPXS/US

Most Searched